BEIDOU-3 IGSO-2

Last updated on Tue Sep 09 2025 00:02:49 GMT+0000 (Coordinated Universal Time)

1 44337U 19035A 25247.72162405 -.00000168 00000+0 00000+0 0 9990 2 44337 55.2150 161.3741 0035069 208.7975 349.2962 1.00246132 22801
UTC large
Height (km)
Speed (km/s)
/
Latitude / Longitude
Inclination (degrees)
Orbital Period (minutes)
Azimuth
Elevation
Range (km)
Doppler Factor

Next 0 passes for location: London (51.5072 / 0.1276)

Sorry there are no passes over London.